MIDORI II (ADEOS-II)

Last updated on Mon Sep 21 2026 00:02:09 GMT+0000 (Coordinated Universal Time)

1 27597U 02056A 26263.61878591 .00000146 00000+0 75075-4 0 9995 2 27597 98.7996 223.7397 0001835 113.9361 246.2013 14.29390590238142
UTC large
Height (km)
Speed (km/s)
/
Latitude / Longitude
Inclination (degrees)
Orbital Period (minutes)
Azimuth
Elevation
Range (km)
Doppler Factor

Next 0 passes for location: London (51.5072 / 0.1276)

No passes found over London.
MIDORI II (ADEOS-II)